User: anonymous   Login
Location: Unspecified
(0.0000°N, 0.0000°E)
Time: 03:41:03
(UTC+02:00)
Language:

Meteor PRIRODA - Orbit

View from above orbital plane
View from above orbital plane
View from above satellite
View from above satellite

Ground track
Ground track

The orbit data is extracted from the following two-line orbital elements,

1 12585U 81065A   16125.92752657 +.00001873 +00000-0 +91541-4 0  9992
2 12585 097.3850 106.6805 0016081 033.3222 019.0809 15.19363730894446
Epoch (UTC): 04 May 2016 22:15:38
Eccentricity: 0.0016081
inclination: 97.3850°
perigee height: 496 km
apogee height: 519 km
right ascension of ascending node: 106.6805°
argument of perigee: 33.3222°
revolutions per day: 15.19363730
mean anomaly at epoch: 19.0809°
orbit number at epoch: 89444

The dashed part of the orbit path shows where the satellite is in the earth's shadow,  

DLR